Location: �bnet
(46.9957°N, 8.4908°E)
Time: 03:22:41
(UTC+00:00)

SL-24 R/B - RUBIN 2 - Pass Details

Date: 11 May 2021
Orbit: 583 x 1012 km, 64.6° (Epoch: 23 June)

Event Time Altitude Azimuth Distance (km) Brightness Sun altitude
Rises 22:04:20 0° 321° (NW) 3,409 8.6 -22.6°
Reaches altitude 10° 22:06:57 10° 320° (NW) 2,400 7.5 -22.7°
Maximum altitude 22:12:25 73° 236° (SW) 772 3.9 -23.0°
Enters shadow 22:13:07 62° 182° (S) 816 3.8 -23.0°
